MCF1BS LICG-LGPZ

Flight info

Callsign MCF1BS
Flight time 1h 3m
Altitude 34000
Route RUBRI DCT KOLEX DCT MADIR DCT UPLIT DCT SUSOM DCT ERNAM DCT LORNO/N0463F350 DCT KFN
Aircraft A320/M-SDE3FGHIRWY/LB1

Departure

Time 2026-05-07 09:26
Airport Pantelleria Airport (LICG)

Arrival

Time 2026-05-07 10:29
Airport Aktion National Airport (LGPZ)
Time Latitude Longitude Altitude Speed Heading
2026-05-07 09:20 36.81827 11.96813 606 ft 0 kts 70°
2026-05-07 09:20 36.81827 11.96816 633 ft 2 kts 70°
2026-05-07 09:21 36.81815 11.96846 640 ft 7 kts 149°
2026-05-07 09:21 36.81763 11.96911 636 ft 13 kts 115°
2026-05-07 09:21 36.81701 11.96928 641 ft 9 kts 205°
2026-05-07 09:21 36.81643 11.96863 643 ft 16 kts 247°
2026-05-07 09:22 36.81611 11.96705 645 ft 19 kts 256°
2026-05-07 09:22 36.81580 11.96551 643 ft 19 kts 256°
2026-05-07 09:22 36.81542 11.96355 645 ft 26 kts 256°
2026-05-07 09:22 36.81502 11.96151 650 ft 22 kts 256°
2026-05-07 09:23 36.81471 11.95987 657 ft 16 kts 256°
2026-05-07 09:23 36.81442 11.95842 662 ft 19 kts 256°
2026-05-07 09:23 36.81438 11.95732 665 ft 8 kts 270°
2026-05-07 09:23 36.81425 11.95738 662 ft 4 kts 118°
2026-05-07 09:24 36.81426 11.95761 663 ft 0 kts 74°
2026-05-07 09:25 36.81462 11.95939 659 ft 62 kts 76°
2026-05-07 09:25 36.81633 11.96821 648 ft 142 kts 77°
2026-05-07 09:26 36.81873 11.98113 1292 ft 157 kts 77°
2026-05-07 09:26 36.82134 11.99471 2366 ft 163 kts 77°
2026-05-07 09:26 36.82404 12.00849 3059 ft 168 kts 73°
2026-05-07 09:26 36.82699 12.02335 3370 ft 190 kts 73°
2026-05-07 09:27 36.83034 12.04031 3646 ft 214 kts 74°
2026-05-07 09:27 36.83407 12.05928 4125 ft 234 kts 73°
2026-05-07 09:27 36.83005 12.10035 5489 ft 265 kts 131°
2026-05-07 09:28 36.81495 12.11372 6235 ft 269 kts 160°
2026-05-07 09:28 36.79722 12.12145 6935 ft 276 kts 168°
2026-05-07 09:28 36.77806 12.12804 7468 ft 291 kts 169°
2026-05-07 09:28 36.75876 12.13652 8261 ft 301 kts 154°
2026-05-07 09:29 36.74264 12.15357 9078 ft 311 kts 130°
2026-05-07 09:29 36.72993 12.17568 9939 ft 315 kts 128°
2026-05-07 09:29 36.71707 12.19861 10379 ft 334 kts 128°
2026-05-07 09:29 36.70334 12.22315 10616 ft 357 kts 127°
2026-05-07 09:30 36.68863 12.24945 10789 ft 381 kts 127°
2026-05-07 09:30 36.67295 12.27731 10935 ft 404 kts 127°
2026-05-07 09:30 36.65647 12.30649 11236 ft 418 kts 128°
2026-05-07 09:30 36.63984 12.33592 11809 ft 423 kts 128°
2026-05-07 09:31 36.62286 12.36601 12435 ft 427 kts 128°
2026-05-07 09:31 36.60575 12.39634 13068 ft 430 kts 128°
2026-05-07 09:31 36.58847 12.42693 13691 ft 434 kts 128°
2026-05-07 09:31 36.57101 12.45775 14207 ft 438 kts 129°
2026-05-07 09:32 36.55341 12.48874 14753 ft 441 kts 129°
2026-05-07 09:32 36.53565 12.52000 15294 ft 444 kts 129°
2026-05-07 09:32 36.51950 12.55310 15804 ft 452 kts 120°
2026-05-07 09:32 36.50771 12.59018 16328 ft 460 kts 109°
2026-05-07 09:33 36.50129 12.62885 16820 ft 467 kts 98°
2026-05-07 09:33 36.50003 12.66940 17317 ft 472 kts 91°
2026-05-07 09:33 36.50024 12.71036 17823 ft 476 kts 91°
2026-05-07 09:33 36.50041 12.75156 18289 ft 479 kts 91°
2026-05-07 09:34 36.50049 12.79319 18688 ft 483 kts 91°
2026-05-07 09:34 36.50051 12.83501 19104 ft 486 kts 91°
2026-05-07 09:34 36.50049 12.87716 19496 ft 489 kts 91°
2026-05-07 09:34 36.50046 12.91957 19874 ft 493 kts 91°
2026-05-07 09:35 36.50044 12.96234 20251 ft 496 kts 91°
2026-05-07 09:35 36.50042 13.00541 20624 ft 500 kts 91°
2026-05-07 09:35 36.50038 13.04869 21000 ft 503 kts 91°
2026-05-07 09:35 36.50032 13.09232 21366 ft 507 kts 91°
2026-05-07 09:36 36.50022 13.13629 21727 ft 510 kts 91°
2026-05-07 09:36 36.50009 13.18045 22096 ft 513 kts 91°
2026-05-07 09:36 36.49994 13.22491 22459 ft 516 kts 91°
2026-05-07 09:36 36.49990 13.26968 22789 ft 519 kts 91°
2026-05-07 09:37 36.49995 13.31465 23118 ft 522 kts 91°
2026-05-07 09:37 36.50004 13.35993 23429 ft 525 kts 91°
2026-05-07 09:37 36.50013 13.40541 23700 ft 528 kts 91°
2026-05-07 09:37 36.50016 13.45118 23966 ft 531 kts 91°
2026-05-07 09:38 36.50011 13.49702 24316 ft 531 kts 91°
2026-05-07 09:38 36.50004 13.54294 24665 ft 532 kts 91°
2026-05-07 09:38 36.50001 13.58903 25013 ft 533 kts 91°
2026-05-07 09:38 36.50007 13.63509 25372 ft 534 kts 90°
2026-05-07 09:39 36.50020 13.68127 25722 ft 535 kts 90°
2026-05-07 09:39 36.50031 13.72762 26081 ft 536 kts 90°
2026-05-07 09:39 36.50037 13.77395 26444 ft 537 kts 90°
2026-05-07 09:39 36.50040 13.82043 26800 ft 538 kts 90°
2026-05-07 09:40 36.50038 13.86703 27147 ft 539 kts 90°
2026-05-07 09:40 36.50034 13.91361 27510 ft 540 kts 90°
2026-05-07 09:40 36.50032 13.96032 27880 ft 541 kts 90°
2026-05-07 09:40 36.50026 14.00715 28254 ft 542 kts 90°
2026-05-07 09:41 36.50014 14.05392 28634 ft 543 kts 90°
2026-05-07 09:41 36.50196 14.10022 28990 ft 544 kts 82°
2026-05-07 09:41 36.50853 14.14656 29352 ft 543 kts 75°
2026-05-07 09:41 36.51697 14.19243 29721 ft 544 kts 75°
2026-05-07 09:42 36.52542 14.23841 30063 ft 545 kts 75°
2026-05-07 09:42 36.53385 14.28434 30413 ft 545 kts 75°
2026-05-07 09:42 36.54223 14.33026 30773 ft 545 kts 75°
2026-05-07 09:42 36.55053 14.37622 31136 ft 544 kts 75°
2026-05-07 09:43 36.55876 14.42215 31506 ft 544 kts 75°
2026-05-07 09:43 36.56699 14.46805 31870 ft 544 kts 75°
2026-05-07 09:43 36.57522 14.51399 32235 ft 543 kts 75°
2026-05-07 09:43 36.58344 14.55982 32612 ft 544 kts 75°
2026-05-07 09:44 36.59168 14.60579 32909 ft 545 kts 75°
2026-05-07 09:44 36.59990 14.65177 33242 ft 545 kts 75°
2026-05-07 09:44 36.60810 14.69783 33602 ft 545 kts 75°
2026-05-07 09:44 36.61628 14.74387 33943 ft 544 kts 75°
2026-05-07 09:45 36.62442 14.78982 34254 ft 544 kts 75°
2026-05-07 09:45 36.63254 14.83578 34579 ft 543 kts 75°
2026-05-07 09:45 36.64061 14.88169 34909 ft 542 kts 75°
2026-05-07 09:45 36.64863 14.92749 35239 ft 541 kts 75°
2026-05-07 09:46 36.65662 14.97324 35581 ft 540 kts 74°
2026-05-07 09:46 36.66459 15.01886 35915 ft 538 kts 74°
2026-05-07 09:46 36.67255 15.06447 36226 ft 537 kts 74°
2026-05-07 09:46 36.68037 15.10928 36533 ft 536 kts 74°
2026-05-07 09:47 36.68828 15.15465 36811 ft 536 kts 74°
2026-05-07 09:47 36.70407 15.24585 36922 ft 541 kts 74°
2026-05-07 09:48 36.71981 15.33771 36945 ft 542 kts 74°
2026-05-07 09:48 36.73551 15.42978 36926 ft 543 kts 74°
2026-05-07 09:49 36.75123 15.52189 36934 ft 543 kts 74°
2026-05-07 09:49 36.76689 15.61403 36932 ft 544 kts 75°
2026-05-07 09:50 36.78247 15.70633 36947 ft 543 kts 74°
2026-05-07 09:50 36.79798 15.79856 36964 ft 543 kts 74°
2026-05-07 09:51 36.81340 15.89079 36962 ft 543 kts 74°
2026-05-07 09:51 36.82879 15.98305 36974 ft 543 kts 74°
2026-05-07 09:52 36.84404 16.07528 36975 ft 542 kts 74°
2026-05-07 09:52 36.85919 16.16752 36996 ft 542 kts 74°
2026-05-07 09:53 36.87640 16.25891 36990 ft 540 kts 71°
2026-05-07 09:53 36.89585 16.34945 36987 ft 539 kts 70°
2026-05-07 09:54 36.91505 16.44008 36985 ft 540 kts 71°
2026-05-07 09:54 36.93326 16.53042 36993 ft 540 kts 71°
2026-05-07 09:55 36.95120 16.62163 36989 ft 540 kts 71°
2026-05-07 09:55 36.96924 16.71275 36987 ft 540 kts 71°
2026-05-07 09:56 36.98735 16.80378 37034 ft 539 kts 71°
2026-05-07 09:56 37.00544 16.89484 37006 ft 540 kts 71°
2026-05-07 09:57 37.02342 16.98607 36999 ft 540 kts 71°
2026-05-07 09:57 37.04138 17.07754 37005 ft 541 kts 71°
2026-05-07 09:58 37.05919 17.16894 37010 ft 540 kts 71°
2026-05-07 09:58 37.07692 17.26046 37024 ft 540 kts 71°
2026-05-07 09:59 37.09452 17.35126 37028 ft 540 kts 71°
2026-05-07 09:59 37.11210 17.44265 37029 ft 540 kts 71°
2026-05-07 10:00 37.12983 17.53402 37033 ft 538 kts 68°
2026-05-07 10:00 37.14328 17.57701 37035 ft 523 kts 53°
2026-05-07 10:00 37.16294 17.61447 37043 ft 510 kts 44°
2026-05-07 10:01 37.20580 17.68523 37035 ft 510 kts 43°
2026-05-07 10:01 37.24890 17.75602 37043 ft 510 kts 43°
2026-05-07 10:02 37.29185 17.82709 37076 ft 511 kts 43°
2026-05-07 10:02 37.33489 17.89801 37086 ft 509 kts 43°
2026-05-07 10:03 37.37788 17.96847 37084 ft 507 kts 43°
2026-05-07 10:03 37.42074 18.03900 37070 ft 508 kts 43°
2026-05-07 10:04 37.46326 18.10999 37054 ft 510 kts 43°
2026-05-07 10:04 37.50584 18.18163 37069 ft 511 kts 43°
2026-05-07 10:05 37.54809 18.25281 37064 ft 512 kts 43°
2026-05-07 10:05 37.59028 18.32377 37067 ft 512 kts 43°
2026-05-07 10:06 37.63302 18.39584 37072 ft 513 kts 43°
2026-05-07 10:06 37.67567 18.46811 37112 ft 514 kts 42°
2026-05-07 10:07 37.71136 18.52867 37105 ft 513 kts 42°
2026-05-07 10:07 37.75396 18.60105 37105 ft 513 kts 42°
2026-05-07 10:08 37.79643 18.67334 37005 ft 508 kts 43°
2026-05-07 10:08 37.81736 18.70914 36487 ft 504 kts 43°
2026-05-07 10:08 37.83822 18.74475 35838 ft 505 kts 42°
2026-05-07 10:08 37.85923 18.78055 35075 ft 507 kts 43°
2026-05-07 10:09 37.88002 18.81601 34314 ft 510 kts 43°
2026-05-07 10:09 37.90121 18.85221 33474 ft 513 kts 44°
2026-05-07 10:09 37.92242 18.88856 32697 ft 514 kts 45°
2026-05-07 10:09 37.94361 18.92495 32085 ft 510 kts 46°
2026-05-07 10:10 37.96450 18.96096 31583 ft 504 kts 46°
2026-05-07 10:10 37.98513 18.99660 30991 ft 499 kts 47°
2026-05-07 10:10 38.00576 19.03212 30233 ft 500 kts 48°
2026-05-07 10:10 38.02638 19.06757 29279 ft 501 kts 49°
2026-05-07 10:11 38.04705 19.10313 28462 ft 500 kts 49°
2026-05-07 10:11 38.06753 19.13853 27783 ft 495 kts 49°
2026-05-07 10:11 38.08771 19.17352 27165 ft 489 kts 50°
2026-05-07 10:11 38.10771 19.20822 26383 ft 486 kts 50°
2026-05-07 10:12 38.12786 19.24312 25309 ft 492 kts 51°
2026-05-07 10:12 38.14805 19.27807 24573 ft 488 kts 51°
2026-05-07 10:12 38.16801 19.31271 23935 ft 482 kts 51°
2026-05-07 10:12 38.18768 19.34689 23293 ft 476 kts 52°
2026-05-07 10:13 38.20711 19.38068 22606 ft 470 kts 52°
2026-05-07 10:13 38.22632 19.41407 21901 ft 467 kts 52°
2026-05-07 10:13 38.24543 19.44733 21207 ft 463 kts 52°
2026-05-07 10:13 38.26432 19.48032 20517 ft 461 kts 53°
2026-05-07 10:14 38.28314 19.51326 19854 ft 458 kts 53°
2026-05-07 10:14 38.30178 19.54594 19217 ft 455 kts 53°
2026-05-07 10:14 38.32035 19.57848 18596 ft 453 kts 53°
2026-05-07 10:14 38.33860 19.61040 17939 ft 450 kts 53°
2026-05-07 10:15 38.35694 19.64253 17312 ft 446 kts 53°
2026-05-07 10:15 38.37510 19.67441 16708 ft 443 kts 53°
2026-05-07 10:15 38.39308 19.70605 16126 ft 439 kts 53°
2026-05-07 10:15 38.41093 19.73750 15546 ft 435 kts 53°
2026-05-07 10:16 38.42860 19.76865 14974 ft 432 kts 53°
2026-05-07 10:16 38.44617 19.79959 14425 ft 428 kts 53°
2026-05-07 10:16 38.46360 19.83033 13889 ft 425 kts 53°
2026-05-07 10:16 38.48080 19.86072 13313 ft 421 kts 53°
2026-05-07 10:17 38.49790 19.89092 12777 ft 416 kts 53°
2026-05-07 10:17 38.51472 19.92061 12240 ft 411 kts 54°
2026-05-07 10:17 38.53139 19.95009 11699 ft 407 kts 54°
2026-05-07 10:17 38.54785 19.97922 11160 ft 402 kts 54°
2026-05-07 10:18 38.56406 20.00805 10632 ft 397 kts 54°
2026-05-07 10:18 38.58009 20.03656 10096 ft 392 kts 55°
2026-05-07 10:18 38.59593 20.06473 9511 ft 387 kts 55°
2026-05-07 10:18 38.61152 20.09246 9011 ft 380 kts 55°
2026-05-07 10:19 38.62636 20.11882 8853 ft 349 kts 55°
2026-05-07 10:19 38.64000 20.14305 8712 ft 322 kts 55°
2026-05-07 10:19 38.65250 20.16532 8392 ft 305 kts 56°
2026-05-07 10:19 38.66474 20.18718 7830 ft 299 kts 56°
2026-05-07 10:20 38.67677 20.20867 7223 ft 294 kts 56°
2026-05-07 10:20 38.68860 20.22983 6628 ft 290 kts 56°
2026-05-07 10:20 38.70009 20.25034 6363 ft 273 kts 56°
2026-05-07 10:20 38.71076 20.26936 6186 ft 254 kts 56°
2026-05-07 10:21 38.72096 20.28766 5992 ft 254 kts 56°
2026-05-07 10:21 38.73117 20.30601 5797 ft 252 kts 56°
2026-05-07 10:21 38.74130 20.32420 5592 ft 250 kts 56°
2026-05-07 10:21 38.75128 20.34210 5384 ft 249 kts 56°
2026-05-07 10:22 38.76127 20.36004 5200 ft 246 kts 56°
2026-05-07 10:22 38.77118 20.37786 5001 ft 245 kts 56°
2026-05-07 10:22 38.78108 20.39558 4811 ft 243 kts 56°
2026-05-07 10:22 38.79090 20.41316 4595 ft 242 kts 56°
2026-05-07 10:23 38.80062 20.43065 4386 ft 240 kts 56°
2026-05-07 10:23 38.81026 20.44803 4135 ft 238 kts 57°
2026-05-07 10:23 38.81978 20.46520 3885 ft 234 kts 56°
2026-05-07 10:23 38.82911 20.48202 3617 ft 227 kts 56°
2026-05-07 10:24 38.83809 20.49818 3378 ft 217 kts 56°
2026-05-07 10:24 38.84566 20.51425 3180 ft 204 kts 65°
2026-05-07 10:24 38.85138 20.53041 3049 ft 192 kts 69°
2026-05-07 10:24 38.85631 20.54563 2940 ft 180 kts 69°
2026-05-07 10:25 38.86093 20.56017 2767 ft 172 kts 69°
2026-05-07 10:25 38.86528 20.57387 2597 ft 159 kts 70°
2026-05-07 10:25 38.86934 20.58671 2407 ft 153 kts 69°
2026-05-07 10:25 38.87331 20.59926 2230 ft 151 kts 69°
2026-05-07 10:26 38.87724 20.61167 2059 ft 150 kts 69°
2026-05-07 10:26 38.88114 20.62401 1878 ft 149 kts 69°
2026-05-07 10:26 38.88499 20.63620 1716 ft 148 kts 69°
2026-05-07 10:26 38.88881 20.64829 1540 ft 148 kts 69°
2026-05-07 10:27 38.89268 20.66056 1360 ft 149 kts 68°
2026-05-07 10:27 38.89657 20.67288 1187 ft 148 kts 69°
2026-05-07 10:27 38.90043 20.68511 1014 ft 148 kts 68°
2026-05-07 10:27 38.90427 20.69728 833 ft 146 kts 68°
2026-05-07 10:28 38.90808 20.70938 666 ft 145 kts 68°
2026-05-07 10:28 38.91177 20.72109 489 ft 146 kts 68°
2026-05-07 10:28 38.91557 20.73316 316 ft 145 kts 68°
2026-05-07 10:28 38.91934 20.74514 144 ft 145 kts 67°
2026-05-07 10:29 38.92303 20.75684 21 ft 126 kts 68°
2026-05-07 10:29 38.92535 20.76420 20 ft 70 kts 68°
2026-05-07 10:29 38.92633 20.76732 21 ft 29 kts 68°
2026-05-07 10:30 38.92776 20.77189 17 ft 20 kts 68°
2026-05-07 10:30 38.92858 20.77222 19 ft 14 kts 339°
2026-05-07 10:30 38.92946 20.77211 18 ft 12 kts
2026-05-07 10:30 38.92999 20.77202 19 ft 4 kts 338°
2026-05-07 10:31 38.93002 20.77201 19 ft 0 kts 338°